WMT697 LFMN-LIRF

Flight info

Callsign WMT697
Flight time 1h 2m
Altitude 29000
Route SODRI DCT RAPUR DCT RATAP DCT BTA/N0421F280 DCT MOULE DCT XOPTA DCT ELB DCT ELKAP
Aircraft A21N/M-SDE1E2E3FGIJ1J4RWXY/LB1

Departure

Time 2026-05-01 10:46
Airport Nice-Côte d'Azur Airport (LFMN)

Arrival

Time 2026-05-01 11:49
Airport Rome–Fiumicino Leonardo da Vinci International Airport (LIRF)
Time Latitude Longitude Altitude Speed Heading
2026-05-01 10:25 43.65886 7.20678 29 ft 0 kts 315°
2026-05-01 10:37 43.65876 7.20690 29 ft 2 kts 314°
2026-05-01 10:37 43.65856 7.20719 29 ft 0 kts 315°
2026-05-01 10:37 43.65848 7.20730 29 ft 2 kts 291°
2026-05-01 10:38 43.65847 7.20750 29 ft 2 kts 254°
2026-05-01 10:38 43.65852 7.20764 29 ft 0 kts 227°
2026-05-01 10:38 43.65857 7.20770 29 ft 1 kts 224°
2026-05-01 10:38 43.65858 7.20771 29 ft 0 kts 224°
2026-05-01 10:40 43.65857 7.20771 29 ft 0 kts 224°
2026-05-01 10:41 43.65843 7.20750 29 ft 6 kts 226°
2026-05-01 10:41 43.65806 7.20700 29 ft 8 kts 224°
2026-05-01 10:41 43.65704 7.20559 29 ft 12 kts 225°
2026-05-01 10:42 43.65640 7.20471 29 ft 13 kts 225°
2026-05-01 10:42 43.65571 7.20376 29 ft 14 kts 225°
2026-05-01 10:42 43.65494 7.20272 29 ft 15 kts 224°
2026-05-01 10:42 43.65422 7.20183 29 ft 11 kts 201°
2026-05-01 10:43 43.65346 7.20207 29 ft 11 kts 143°
2026-05-01 10:43 43.65285 7.20287 29 ft 12 kts 134°
2026-05-01 10:43 43.65221 7.20375 29 ft 13 kts 135°
2026-05-01 10:43 43.65151 7.20473 29 ft 14 kts 138°
2026-05-01 10:44 43.65058 7.20513 29 ft 14 kts 188°
2026-05-01 10:44 43.64975 7.20442 29 ft 14 kts 224°
2026-05-01 10:44 43.64903 7.20342 29 ft 14 kts 225°
2026-05-01 10:44 43.64831 7.20244 29 ft 14 kts 224°
2026-05-01 10:45 43.64745 7.20190 29 ft 14 kts 159°
2026-05-01 10:45 43.64700 7.20245 29 ft 5 kts 119°
2026-05-01 10:45 43.64705 7.20299 29 ft 6 kts 46°
2026-05-01 10:45 43.64745 7.20348 29 ft 12 kts 45°
2026-05-01 10:46 43.64973 7.20662 29 ft 81 kts 46°
2026-05-01 10:46 43.65534 7.21436 29 ft 142 kts 45°
2026-05-01 10:46 43.66327 7.22512 210 ft 172 kts 48°
2026-05-01 10:46 43.67108 7.23762 826 ft 171 kts 68°
2026-05-01 10:47 43.67101 7.25283 1533 ft 167 kts 113°
2026-05-01 10:47 43.66287 7.26441 2075 ft 175 kts 141°
2026-05-01 10:47 43.65291 7.27470 2386 ft 187 kts 136°
2026-05-01 10:47 43.64261 7.28653 2726 ft 200 kts 134°
2026-05-01 10:48 43.63191 7.29994 3132 ft 211 kts 133°
2026-05-01 10:48 43.62118 7.31356 3685 ft 214 kts 133°
2026-05-01 10:48 43.61026 7.32768 4245 ft 217 kts 130°
2026-05-01 10:48 43.60033 7.34418 4524 ft 236 kts 124°
2026-05-01 10:49 43.59014 7.36283 4891 ft 253 kts 123°
2026-05-01 10:49 43.57914 7.38298 5428 ft 264 kts 124°
2026-05-01 10:49 43.56801 7.40313 6140 ft 268 kts 124°
2026-05-01 10:49 43.55673 7.42339 6848 ft 272 kts 124°
2026-05-01 10:50 43.54509 7.44415 7564 ft 276 kts 124°
2026-05-01 10:50 43.53327 7.46515 8288 ft 280 kts 124°
2026-05-01 10:50 43.52128 7.48639 8979 ft 283 kts 124°
2026-05-01 10:50 43.50906 7.50801 9648 ft 287 kts 125°
2026-05-01 10:51 43.49681 7.52966 10310 ft 291 kts 125°
2026-05-01 10:51 43.48427 7.55177 10844 ft 300 kts 125°
2026-05-01 10:51 43.47109 7.57505 11150 ft 316 kts 125°
2026-05-01 10:51 43.45727 7.59944 11489 ft 330 kts 125°
2026-05-01 10:52 43.43833 7.63276 12305 ft 336 kts 125°
2026-05-01 10:52 43.42873 7.64961 12729 ft 337 kts 125°
2026-05-01 10:52 43.41412 7.67525 13380 ft 340 kts 126°
2026-05-01 10:52 43.39942 7.70101 13996 ft 343 kts 125°
2026-05-01 10:53 43.38466 7.72689 14602 ft 345 kts 125°
2026-05-01 10:53 43.36986 7.75280 15195 ft 348 kts 125°
2026-05-01 10:53 43.35495 7.77887 15775 ft 350 kts 124°
2026-05-01 10:53 43.33981 7.80534 16356 ft 352 kts 124°
2026-05-01 10:54 43.32477 7.83164 16905 ft 355 kts 124°
2026-05-01 10:54 43.30934 7.85860 17453 ft 358 kts 124°
2026-05-01 10:54 43.29398 7.88539 17983 ft 360 kts 124°
2026-05-01 10:54 43.27858 7.91224 18480 ft 363 kts 123°
2026-05-01 10:55 43.26292 7.93956 18965 ft 366 kts 124°
2026-05-01 10:55 43.24713 7.96708 19441 ft 369 kts 124°
2026-05-01 10:55 43.23140 7.99444 19888 ft 372 kts 124°
2026-05-01 10:55 43.21525 8.02250 20336 ft 375 kts 124°
2026-05-01 10:56 43.19898 8.05069 20777 ft 378 kts 124°
2026-05-01 10:56 43.18261 8.07908 21224 ft 381 kts 124°
2026-05-01 10:56 43.16636 8.10722 21606 ft 381 kts 124°
2026-05-01 10:56 43.14966 8.13615 21870 ft 387 kts 124°
2026-05-01 10:57 43.13296 8.16502 22282 ft 390 kts 124°
2026-05-01 10:57 43.11623 8.19391 22676 ft 392 kts 124°
2026-05-01 10:57 43.09933 8.22307 23083 ft 394 kts 124°
2026-05-01 10:57 43.08210 8.25278 23446 ft 398 kts 124°
2026-05-01 10:58 43.06501 8.28223 23798 ft 401 kts 124°
2026-05-01 10:58 43.04755 8.31223 24155 ft 404 kts 124°
2026-05-01 10:58 43.03031 8.34222 24501 ft 406 kts 122°
2026-05-01 10:58 43.01397 8.37392 24854 ft 407 kts 118°
2026-05-01 10:59 42.99916 8.40686 25187 ft 408 kts 115°
2026-05-01 10:59 42.98568 8.44076 25504 ft 410 kts 113°
2026-05-01 10:59 42.97237 8.47493 25827 ft 412 kts 113°
2026-05-01 10:59 42.95886 8.50966 26151 ft 415 kts 113°
2026-05-01 11:00 42.94522 8.54459 26470 ft 417 kts 113°
2026-05-01 11:00 42.93163 8.57929 26759 ft 420 kts 113°
2026-05-01 11:00 42.91781 8.61441 27035 ft 423 kts 114°
2026-05-01 11:00 42.90384 8.64989 27327 ft 426 kts 113°
2026-05-01 11:01 42.88987 8.68532 27674 ft 427 kts 114°
2026-05-01 11:01 42.87563 8.72125 28012 ft 428 kts 114°
2026-05-01 11:01 42.86166 8.75644 28318 ft 429 kts 114°
2026-05-01 11:01 42.84748 8.79219 28588 ft 432 kts 114°
2026-05-01 11:02 42.83305 8.82853 28880 ft 433 kts 114°
2026-05-01 11:02 42.81875 8.86446 29186 ft 435 kts 114°
2026-05-01 11:02 42.80424 8.90093 29255 ft 437 kts 114°
2026-05-01 11:03 42.77512 8.97392 29258 ft 437 kts 114°
2026-05-01 11:03 42.74602 9.04666 29256 ft 438 kts 114°
2026-05-01 11:04 42.71697 9.11913 29258 ft 438 kts 114°
2026-05-01 11:04 42.68784 9.19157 29257 ft 439 kts 114°
2026-05-01 11:05 42.65867 9.26400 29255 ft 439 kts 114°
2026-05-01 11:05 42.62941 9.33654 29261 ft 439 kts 114°
2026-05-01 11:06 42.59997 9.40931 29268 ft 439 kts 114°
2026-05-01 11:06 42.58691 9.44604 29257 ft 433 kts 103°
2026-05-01 11:06 42.58056 9.48615 29269 ft 425 kts 88°
2026-05-01 11:07 42.58801 9.56383 29278 ft 419 kts 70°
2026-05-01 11:07 42.59511 9.60238 29275 ft 420 kts 70°
2026-05-01 11:07 42.60900 9.67915 29269 ft 420 kts 71°
2026-05-01 11:08 42.62234 9.75594 29268 ft 420 kts 71°
2026-05-01 11:09 42.64173 9.87130 29262 ft 422 kts 75°
2026-05-01 11:09 42.64129 9.91140 29251 ft 433 kts 93°
2026-05-01 11:09 42.63560 9.95140 29265 ft 431 kts 95°
2026-05-01 11:10 42.61812 10.07046 29258 ft 428 kts 94°
2026-05-01 11:10 42.60720 10.14915 29268 ft 428 kts 94°
2026-05-01 11:11 42.59634 10.22847 29259 ft 427 kts 93°
2026-05-01 11:11 42.58741 10.29382 29262 ft 426 kts 93°
2026-05-01 11:12 42.58046 10.34468 29257 ft 426 kts 92°
2026-05-01 11:12 42.57109 10.41283 29260 ft 426 kts 92°
2026-05-01 11:13 42.56012 10.49273 29263 ft 441 kts 92°
2026-05-01 11:13 42.54870 10.57553 29253 ft 456 kts 93°
2026-05-01 11:14 42.53682 10.66055 29248 ft 464 kts 93°
2026-05-01 11:14 42.52469 10.74630 29245 ft 465 kts 93°
2026-05-01 11:15 42.51257 10.83181 29234 ft 462 kts 93°
2026-05-01 11:15 42.50653 10.87393 29188 ft 447 kts 93°
2026-05-01 11:15 42.50071 10.91447 28832 ft 438 kts 92°
2026-05-01 11:16 42.49495 10.95495 28338 ft 432 kts 92°
2026-05-01 11:16 42.48935 10.99411 27772 ft 429 kts 92°
2026-05-01 11:16 42.48364 11.03434 27103 ft 428 kts 92°
2026-05-01 11:16 42.47805 11.07349 26567 ft 424 kts 92°
2026-05-01 11:17 42.47248 11.11235 26119 ft 418 kts 92°
2026-05-01 11:17 42.46698 11.15029 25663 ft 413 kts 92°
2026-05-01 11:17 42.46153 11.18802 25213 ft 409 kts 93°
2026-05-01 11:17 42.45301 11.22462 24898 ft 414 kts 106°
2026-05-01 11:18 42.43927 11.25878 24670 ft 415 kts 112°
2026-05-01 11:18 42.42442 11.29242 24426 ft 411 kts 112°
2026-05-01 11:18 42.40999 11.32521 24171 ft 408 kts 111°
2026-05-01 11:18 42.39572 11.35846 23932 ft 407 kts 110°
2026-05-01 11:19 42.38151 11.39226 23688 ft 406 kts 110°
2026-05-01 11:19 42.36761 11.42565 23422 ft 406 kts 110°
2026-05-01 11:19 42.35381 11.45916 23179 ft 412 kts 110°
2026-05-01 11:19 42.33996 11.49273 22970 ft 411 kts 110°
2026-05-01 11:20 42.32600 11.52661 22732 ft 412 kts 110°
2026-05-01 11:20 42.31205 11.56049 22492 ft 411 kts 110°
2026-05-01 11:20 42.29821 11.59404 22273 ft 409 kts 111°
2026-05-01 11:20 42.28437 11.62754 22024 ft 409 kts 111°
2026-05-01 11:21 42.27068 11.66068 21817 ft 408 kts 111°
2026-05-01 11:21 42.25667 11.69458 21555 ft 407 kts 111°
2026-05-01 11:21 42.24266 11.72849 21305 ft 406 kts 112°
2026-05-01 11:21 42.22908 11.76125 21049 ft 403 kts 112°
2026-05-01 11:22 42.21543 11.79400 20727 ft 395 kts 112°
2026-05-01 11:22 42.20208 11.82610 20369 ft 389 kts 111°
2026-05-01 11:22 42.18898 11.85766 19925 ft 386 kts 112°
2026-05-01 11:22 42.17598 11.88893 19479 ft 384 kts 112°
2026-05-01 11:23 42.16297 11.92019 19077 ft 381 kts 112°
2026-05-01 11:23 42.15021 11.95092 18612 ft 379 kts 112°
2026-05-01 11:23 42.13737 11.98171 18158 ft 377 kts 112°
2026-05-01 11:23 42.12460 12.01228 17689 ft 375 kts 112°
2026-05-01 11:24 42.11185 12.04279 17240 ft 372 kts 112°
2026-05-01 11:24 42.09925 12.07285 16837 ft 368 kts 112°
2026-05-01 11:24 42.07455 12.13183 15983 ft 359 kts 113°
2026-05-01 11:25 42.06224 12.16116 15496 ft 357 kts 112°
2026-05-01 11:25 42.03818 12.21850 14633 ft 350 kts 113°
2026-05-01 11:25 42.02636 12.24658 14390 ft 346 kts 113°
2026-05-01 11:26 42.01444 12.27480 14244 ft 345 kts 113°
2026-05-01 11:26 41.99095 12.32947 13802 ft 330 kts 119°
2026-05-01 11:26 41.97446 12.35004 13541 ft 332 kts 147°
2026-05-01 11:27 41.95301 12.36078 13358 ft 326 kts 160°
2026-05-01 11:27 41.93146 12.36825 13123 ft 316 kts 162°
2026-05-01 11:27 41.91036 12.37550 12788 ft 310 kts 161°
2026-05-01 11:27 41.88990 12.38322 12429 ft 304 kts 159°
2026-05-01 11:28 41.86977 12.39129 12191 ft 296 kts 159°
2026-05-01 11:28 41.85028 12.39934 11867 ft 293 kts 158°
2026-05-01 11:28 41.83063 12.40754 11353 ft 297 kts 158°
2026-05-01 11:29 41.79123 12.42405 10531 ft 296 kts 158°
2026-05-01 11:29 41.77150 12.43229 9899 ft 300 kts 159°
2026-05-01 11:29 41.73208 12.44871 8867 ft 295 kts 159°
2026-05-01 11:30 41.71255 12.45684 8359 ft 293 kts 159°
2026-05-01 11:30 41.69313 12.46490 7856 ft 290 kts 159°
2026-05-01 11:30 41.67382 12.47271 7344 ft 289 kts 163°
2026-05-01 11:30 41.65378 12.47386 6873 ft 291 kts 191°
2026-05-01 11:31 41.63586 12.46299 6660 ft 280 kts 219°
2026-05-01 11:31 41.62402 12.44341 6439 ft 265 kts 246°
2026-05-01 11:31 41.61721 12.42130 6136 ft 253 kts 252°
2026-05-01 11:31 41.61158 12.39932 5659 ft 250 kts 253°
2026-05-01 11:32 41.60615 12.37736 5151 ft 248 kts 256°
2026-05-01 11:32 41.60433 12.35502 4614 ft 241 kts 284°
2026-05-01 11:32 41.61105 12.33553 4173 ft 227 kts 315°
2026-05-01 11:32 41.62222 12.32091 3747 ft 221 kts 322°
2026-05-01 11:33 41.63395 12.30819 3384 ft 216 kts 328°
2026-05-01 11:33 41.64661 12.29853 3232 ft 201 kts 337°
2026-05-01 11:33 41.65939 12.29179 2922 ft 195 kts 343°
2026-05-01 11:33 41.67216 12.28628 2595 ft 190 kts 345°
2026-05-01 11:34 41.68439 12.28125 2283 ft 179 kts 346°
2026-05-01 11:34 41.69585 12.27650 2002 ft 167 kts 345°
2026-05-01 11:34 41.70651 12.27203 1773 ft 153 kts 346°
2026-05-01 11:34 41.71637 12.26785 1553 ft 142 kts 343°
2026-05-01 11:35 41.72563 12.26404 1301 ft 136 kts 347°
2026-05-01 11:35 41.73461 12.26036 1121 ft 133 kts 343°
2026-05-01 11:35 41.74349 12.25642 953 ft 138 kts 345°
2026-05-01 11:35 41.75270 12.25264 776 ft 140 kts 347°
2026-05-01 11:36 41.76201 12.24882 561 ft 139 kts 345°
2026-05-01 11:36 41.77111 12.24492 325 ft 136 kts 346°
2026-05-01 11:36 41.78007 12.24128 119 ft 134 kts 342°
2026-05-01 11:36 41.78909 12.23734 254 ft 141 kts 341°
2026-05-01 11:37 41.79847 12.23324 925 ft 146 kts 343°
2026-05-01 11:37 41.80804 12.22907 1628 ft 151 kts 345°
2026-05-01 11:37 41.81860 12.22453 1945 ft 170 kts 345°
2026-05-01 11:37 41.83110 12.21915 1978 ft 207 kts 345°
2026-05-01 11:38 41.84538 12.21296 1903 ft 220 kts 341°
2026-05-01 11:38 41.85810 12.20109 1918 ft 230 kts 310°
2026-05-01 11:38 41.86429 12.18134 1950 ft 237 kts 278°
2026-05-01 11:38 41.86254 12.15925 1979 ft 240 kts 258°
2026-05-01 11:39 41.85790 12.13776 1976 ft 241 kts 255°
2026-05-01 11:39 41.85282 12.11638 1969 ft 241 kts 254°
2026-05-01 11:39 41.84741 12.09399 1975 ft 255 kts 254°
2026-05-01 11:39 41.83982 12.07263 1958 ft 259 kts 232°
2026-05-01 11:40 41.82536 12.05777 1968 ft 269 kts 202°
2026-05-01 11:40 41.80701 12.05358 1972 ft 268 kts 174°
2026-05-01 11:40 41.78869 12.05752 1972 ft 267 kts 165°
2026-05-01 11:40 41.77050 12.06301 1967 ft 267 kts 164°
2026-05-01 11:41 41.75245 12.06880 1963 ft 268 kts 164°
2026-05-01 11:41 41.73415 12.07478 1963 ft 268 kts 164°
2026-05-01 11:41 41.71618 12.08074 1963 ft 268 kts 164°
2026-05-01 11:41 41.69794 12.08679 1961 ft 268 kts 164°
2026-05-01 11:42 41.68001 12.09274 1954 ft 260 kts 164°
2026-05-01 11:42 41.66283 12.09846 1951 ft 247 kts 164°
2026-05-01 11:42 41.64609 12.10403 1957 ft 247 kts 164°
2026-05-01 11:42 41.62949 12.10974 1959 ft 245 kts 160°
2026-05-01 11:43 41.61515 12.12080 1939 ft 232 kts 130°
2026-05-01 11:43 41.60794 12.13883 1932 ft 214 kts 95°
2026-05-01 11:43 41.60845 12.15819 1972 ft 211 kts 78°
2026-05-01 11:44 41.61453 12.19640 1964 ft 211 kts 74°
2026-05-01 11:44 41.61782 12.21559 1963 ft 208 kts 74°
2026-05-01 11:44 41.62096 12.23385 1952 ft 200 kts 74°
2026-05-01 11:44 41.62412 12.25214 1956 ft 200 kts 72°
2026-05-01 11:45 41.63007 12.26858 1937 ft 195 kts 42°
2026-05-01 11:45 41.64175 12.27755 1966 ft 195 kts 19°
2026-05-01 11:45 41.65470 12.28273 1963 ft 192 kts 14°
2026-05-01 11:45 41.66734 12.28535 1927 ft 177 kts 357°
2026-05-01 11:46 41.67961 12.28279 1961 ft 181 kts 348°
2026-05-01 11:46 41.69178 12.27835 2071 ft 178 kts 346°
2026-05-01 11:46 41.70309 12.27359 1869 ft 163 kts 345°
2026-05-01 11:46 41.71347 12.26912 1628 ft 150 kts 345°
2026-05-01 11:47 41.72298 12.26509 1390 ft 138 kts 344°
2026-05-01 11:47 41.73200 12.26130 1192 ft 137 kts 346°
2026-05-01 11:47 41.74111 12.25749 993 ft 136 kts 346°
2026-05-01 11:47 41.75015 12.25371 789 ft 136 kts 346°
2026-05-01 11:48 41.75919 12.24993 581 ft 135 kts 345°
2026-05-01 11:48 41.76817 12.24615 368 ft 135 kts 346°
2026-05-01 11:48 41.77711 12.24248 170 ft 135 kts 345°
2026-05-01 11:48 41.78592 12.23877 22 ft 124 kts 343°
2026-05-01 11:49 41.79294 12.23582 10 ft 83 kts 343°
2026-05-01 11:49 41.79681 12.23424 12 ft 31 kts 341°
2026-05-01 11:49 41.79758 12.23423 12 ft 7 kts 56°
2026-05-01 11:49 41.79772 12.23504 10 ft 10 kts 72°
2026-05-01 11:50 41.79794 12.23582 10 ft 5 kts 70°
2026-05-01 11:50 41.79803 12.23615 10 ft 3 kts 69°
2026-05-01 11:50 41.79807 12.23630 10 ft 0 kts 69°
2026-05-01 11:51 41.79809 12.23638 10 ft 2 kts 69°
2026-05-01 11:51 41.79812 12.23670 10 ft 4 kts 101°
2026-05-01 11:51 41.79781 12.23705 10 ft 7 kts 156°
2026-05-01 11:51 41.79721 12.23732 10 ft 10 kts 163°
2026-05-01 11:52 41.79647 12.23762 10 ft 12 kts 162°
2026-05-01 11:52 41.79564 12.23798 10 ft 12 kts 162°
2026-05-01 11:52 41.79476 12.23834 10 ft 13 kts 162°
2026-05-01 11:52 41.79385 12.23872 10 ft 14 kts 162°
2026-05-01 11:53 41.79293 12.23911 10 ft 10 kts 162°
2026-05-01 11:53 41.79253 12.23981 10 ft 10 kts 83°
2026-05-01 11:53 41.79281 12.24076 10 ft 11 kts 70°
2026-05-01 11:53 41.79308 12.24177 10 ft 11 kts 69°
2026-05-01 11:54 41.79335 12.24275 12 ft 10 kts 69°
2026-05-01 11:54 41.79337 12.24359 13 ft 9 kts 117°
2026-05-01 11:54 41.79299 12.24438 13 ft 10 kts 115°
2026-05-01 11:54 41.79301 12.24534 13 ft 10 kts 77°
2026-05-01 11:55 41.79317 12.24566 13 ft 4 kts 18°
2026-05-01 11:55 41.79350 12.24560 13 ft 5 kts 346°
2026-05-01 11:55 41.79378 12.24551 13 ft 0 kts 346°